This is the latest recevied weather packets stored in our database for station/object WB6ANP. If no packets are shown the sender has not sent any weather packets the latest 10 day(s).
| Time | Temp. | Humidity | Pressure | Rain* | Wind** | Luminosity | Snow |
|---|---|---|---|---|---|---|---|
| 1777468871 | 14.44° C | 82% | 1015 hPa | 0 mm | - | 42 W/m² | - |
| 1777468568 | 14.44° C | 82% | 1015.2 hPa | 0 mm | - | 43 W/m² | - |
| 1777468265 | 14.44° C | 82% | 1014.9 hPa | 0 mm | - | 40 W/m² | - |
| 1777467961 | 14.44° C | 82% | 1015.1 hPa | 0 mm | - | 50 W/m² | - |
| 1777467656 | 14.44° C | 81% | 1015.1 hPa | 0 mm | - | 43 W/m² | - |
| 1777467352 | 14.44° C | 80% | 1015.4 hPa | 0 mm | - | 35 W/m² | - |
| 1777467048 | 14.44° C | 81% | 1015.2 hPa | 0 mm | - | 29 W/m² | - |
| 1777466746 | 14.44° C | 80% | 1014.7 hPa | 0 mm | - | 24 W/m² | - |
| 1777466443 | 14.44° C | 80% | 1015 hPa | 0 mm | - | 22 W/m² | - |
| 1777466139 | 14.44° C | 79% | 1014.9 hPa | 0 mm | - | 21 W/m² | - |
| 1777465836 | 14.44° C | 79% | 1015 hPa | 0 mm | - | 18 W/m² | - |
| 1777465531 | 14.44° C | 79% | 1015 hPa | 0 mm | - | 15 W/m² | - |
| 1777465226 | 14.44° C | 80% | 1015.1 hPa | 0 mm | - | 10 W/m² | - |
| 1777464921 | 14.44° C | 79% | 1014.9 hPa | 0 mm | - | 5 W/m² | - |
| 1777464616 | 14.44° C | 80% | 1014.6 hPa | 0 mm | - | 6 W/m² | - |
| 1777464313 | 15° C | 79% | 1014.4 hPa | 0 mm | - | 4 W/m² | - |
| 1777464009 | 15° C | 79% | 1014.4 hPa | 0 mm | - | 3 W/m² | - |
| 1777463703 | 15° C | 80% | 1014.4 hPa | 0 mm | - | 2 W/m² | - |
| 1777463398 | 15° C | 81% | 1014.1 hPa | 0 mm | - | 2 W/m² | - |
| 1777463095 | 15° C | 81% | 1014.1 hPa | 0 mm | - | 1 W/m² | - |
| 1777462790 | 15° C | 81% | 1014.4 hPa | 0 mm | - | 0 W/m² | - |
| 1777462486 | 15° C | 81% | 1014.2 hPa | 0 mm | - | 0 W/m² | - |
| 1777462183 | 15° C | 81% | 1014.5 hPa | 0 mm | - | 0 W/m² | - |
| 1777461879 | 15° C | 82% | 1014.2 hPa | 0 mm | - | 0 W/m² | - |
| 1777461576 | 15° C | 81% | 1014.2 hPa | 0 mm | - | 0 W/m² | - |
* Rain latest hour (hover to see other rain measurements)
** Current wind speed in m/s (hover to see current wind gust speed)